Location: Tamazert
(32.6352°N, 5.2072°W)
Time: 16:48:46
(UTC+00:00)

Transit 2A Rocket - Pass Details

Date: 08 October 2022
Orbit: 589 x 912 km, 66.7° (Epoch: 07 December)

Event Time Altitude Azimuth Distance (km) Brightness Sun altitude
Rises 05:11:41 0° 236° (SW) 2,843 - -15.1°
Reaches altitude 10° 05:14:21 10° 252° (WSW) 1,922 - -14.5°
Exits shadow 05:16:58 21° 288° (WNW) 1,341 5.7 -14.0°
Maximum altitude 05:17:42 22° 303° (WNW) 1,306 5.8 -13.8°
Drops below altitude 10° 05:21:03 10° 355° (N) 1,922 7.1 -13.1°
Sets 05:23:44 0° 11° (N) 2,843 8.1 -12.6°
